Flag for Poland Weather past 2 weeks in Grudziądz, Poland

Now
59 °F

Partly sunny.


Feels Like: 59 °F
Forecast: 65 / 94 °F
Wind: 1 mph from Northeast

Location: Torun

Current Time: Aug 31, 2015 at 7:21:13 AM

Latest Report: Aug 31, 2015 at 6:00 AM


Visibility: 13 mi

Pressure: 30.03 "Hg

Humidity: 88%

Dew point: 55 °F

Location of GrudziądzLocation

Historic Weather in Grudziądz — Graph

°F

Grudziądz temperature yesterday

Maximum temperature yesterday: 87 °F (at 4:00 PM)
Minimum temperature yesterday: 50 °F (at 4:00 AM)
Average temperature yesterday: 68 °F

Past Weeks' High & Low Weather Summary

 TemperatureHumidityPressure
High87 °F (Aug 30, 4:00 PM)98% (Aug 29, 3:00 AM)30.37 "Hg (Aug 29, 3:00 AM)
Low46 °F (Aug 21, 5:00 AM)22% (Aug 18, 5:00 PM)29.83 "Hg (Aug 28, 3:00 AM)
Average69 °F53%30.08 "Hg
* Reported Aug 16 6:00 AM — Aug 31 5:00 AM, Grudziądz, Weather by CustomWeather, © 2015

Note: Actual official high and low records may vary slightly from our data, if they occured in-between our weather recording intervals... More about our weather records

Advertising

Grudziądz weather history for previous 24 hours

 ConditionsComfort  
Time TempWeatherWind HumidityBarometerVisibility
5:00 AM
Mon, Aug 31
59 °FPassing clouds.1 mph88%30.03 "Hg14 mi
4:00 AM60 °FPassing clouds.1 mph85%30.04 "Hg16 mi
3:00 AM60 °FPassing clouds.1 mph84%30.05 "Hg15 mi
2:00 AM63 °FPassing clouds.1 mph78%30.06 "Hg16 mi
1:00 AM65 °FPassing clouds.1 mph75%30.07 "Hg22 mi
12:00 AM66 °FPassing clouds.1 mph73%30.07 "Hg22 mi
11:00 PM
Sun, Aug 30
68 °FPassing clouds.1 mph69%30.07 "Hg25 mi
10:00 PM69 °FPassing clouds.2 mph66%30.07 "Hg28 mi
9:00 PM72 °FPassing clouds.1 mph62%30.07 "Hg18 mi
8:00 PM76 °FPassing clouds.2 mph52%30.06 "Hg22 mi
7:00 PM82 °FScattered clouds.1 mph40%30.06 "Hg31 mi
6:00 PM85 °FPassing clouds.1 mph35%30.07 "Hg28 mi
5:00 PM86 °FPassing clouds.2 mph33%30.06 "Hg28 mi
4:00 PM87 °FPassing clouds.2 mph35%30.07 "Hg22 mi
3:00 PM86 °FPassing clouds.3 mph39%30.09 "Hg22 mi
2:00 PM84 °FPassing clouds.3 mph42%30.11 "Hg16 mi
1:00 PM81 °FScattered clouds.3 mph48%30.13 "Hg14 mi
12:00 PM79 °FPartly sunny.6 mph53%30.14 "Hg14 mi
11:00 AM76 °FScattered clouds.3 mph52%30.16 "Hg16 mi
10:00 AM71 °FPartly sunny.2 mph56%30.18 "Hg22 mi
9:00 AM64 °FPartly sunny.2 mph64%30.18 "Hg17 mi
8:00 AM60 °FPartly sunny.3 mph68%30.20 "Hg22 mi
7:00 AM58 °FPartly sunny.2 mph77%30.21 "Hg19 mi
Weather by CustomWeather, © 2015

See weather overviewHow to use our weather pages